ONGLAISAT

Last updated on Wed Feb 05 2025 00:02:08 GMT+0000 (Coordinated Universal Time)

1 62299U 98067XF 25035.59063929 .00345625 00000+0 23712-2 0 9997 2 62299 51.6299 239.7014 0011793 212.1925 147.8355 15.73047710 8917
UTC large
Height (km)
Speed (km/s)
/
Latitude / Longitude
Inclination (degrees)
Orbital Period (minutes)
Azimuth
Elevation
Range (km)
Doppler Factor

Next 0 passes for location: London (51.5072 / 0.1276)

Sorry there are no passes over London.